STARLINK-1279, 45360

Orbit data source: Space-Track

STARLINK-1279, 45360 is a payload satellite owned by SpaceX/Seattle (US) in LEO that was launched on Wed, 18 Mar 2020 UTC via an FALCON 9 launch vehicle from the Air Force Eastern Test Range (AFETR). Payload-class satellites include a variety of spacecraft equipped with specific instruments for various scientific and technological missions. These include communications satellites like Starlink; space stations such as the ISS; scientific satellites like the Hubble; Earth observation satellites from companies like Planet Labs, Umbra, and HawkEye 360; GPS; miniature CubeSats for education and research; and military/defense satellites.

Loading next visibility...
Identifier
45360, 2020-019A
Orbit
LEO
Country
Flag of USUS
Related business
Manufacturer
SpaceX/Seattle
Mission
Partially operational Commercial Communications
Bus & Motor
STARLINK, Unknown motor
Mass
260 kg wet, ~248 kg dry
Launch date (UTC)
2020-03-18 (6 years ago)
Launch vehicle
FALCON 9
Launch site
Air Force Eastern Test Range (AFETR)
Object type
Payload
Rocket body
Debris
Shape & HBR
Box + 1 Pan, 10.1 m
Radar Cross Section
13.562 m², Large (>1 m²)

Expand to show TLE details & history
Last TLE update: 6 hours ago

TLE from 6 hours ago
0 STARLINK-1279
1 45360U 20019A   26125.58335647  .00112951  00000-0  91369-3 0  9997
2 45360  53.0355 180.1176 0009072   0.5964 299.8953 15.69943488  5857
Epoch: 2026-05-05T14:00Z
TLE epoch observation values (Epoch: 2026-05-05T14:00:01.999Z)
Latitude
-43.76058°
Longitude
60.873°
Altitude
370.712 km
Speed
7.689 km/s
True Right ascension
08h 57m 20s
True Declination
-43° 34' 44"
Sunlit
Object was in daylight at epoch
Visualization orbit readout
Latitude
Unknown
Longitude
Unknown
Altitude
Unknown
Speed
Unknown
Apparent Right ascension
Unknown
Apparent Declination
Unknown
Sunlit
N/A
Visualization observer readout
Local Sidereal Time
03:32:11
Azimuth
Unknown
Elevation
Unknown
Doppler factor
Unknown
Orbital elements
Apogee altitude
365.452 km
Perigee altitude
353.228 km
Semi-major axis
6,737.477 km
Eccentricity
0.00091
Inclination
53.0355°
RAAN
180.1176°
Arg. of periapsis
0.5964°
True anomaly
299.80512°
Mean anomaly
299.8953°
Eccentric anomaly
299.85022°
Mean motion
3.92462 °/min
Orbital period
91.73 mins
BSTAR
0.00091369
Loading maneuver chart data...
Computing Atmospheric mass density...
Loading historical data...
Loading historical data...
Loading historical data...
Loading historical data...
Loading historical data...
Loading historical data...
Loading historical data...

Documentation

Showing up to 5 results
|